星链-5038 (STARLINK-5038 )

导读

STARLINK-5038是美国于2023年5月10日发射的Starlink星链卫星,属于SpaceX公司低轨互联网星座组网卫星,该星座旨在为全球提供高速低延迟互联网覆盖。作为星链批量发射卫星之一,它承担着补充星座网络容量、完善全球覆盖的任务,也持续引发对太空轨道资源争夺和天文观测影响的讨论。

基本信息
目录编号:
56472
目录名称:
STARLINK-5038
国际标识:
2023-064AA
轨道中心:
EARTH
卫星名称:
星链-5038
卫星全名:
星链-5038 (STARLINK-5038 )
卫星状态:
在轨 (已飞行1221 天)
发射日期:
2023-05-10 UTC
国别 :
美国 (US)
星等 :
--
该卫星已列入 空间交会检测服务 Space Conjunction Data Service (SCDS) ,当前飞行风险评估等级: 无高风险
轨道信息
数据来源 国际轨道数据 AOE轨道数据
星历时间 2026-09-12T15:41:20+0800
7小时前
查看轨道信息
2026-09-09T06:00:00+0800
3天前
查看轨道信息
半长轴 6949.284km 6950.171km
偏心率 0.0003186 0.0002811
轨道倾角 70.001° 70.002°
近地点辐角 287.805° 272.388°
升交点赤经 13.944° 22.523°
平近点角 72.276° 91.562°
近地点 568.932km 570.08km
远地点 573.362km 573.988km
周期 96.088分钟 96.107分钟
每日圈数 14.986241 14.983373
详细信息
固有亮度:
5
最大亮度:
2.5
卫星平台:
Starlink v1.5
覆盖范围:
全球
运营商:
太空探索技术公司
运营商所在国:
美国
制造商(研发单位):
太空探索技术公司
制造商所在国:
美国
使用方式:
暂无
卫星简介
星链(Starlink)计划是由太空探索技术公司(SpaceX)提出的一个巨型低轨卫星互联网星座项目,计划在2019年至2024年间在太空搭建由约1.2万颗卫星组成的“星链”网络,其中1584颗将部署在地球上空550千米处的近地轨道,并从2020年开始工作。该卫星仍在工作。
2D轨道图
3D轨道图
轨道高度分析图
轨道倾角分析图
轨道综合分析图
查看轨道综合分析图
交会数据列表
事件ID 空间交会对象 最接近时刻(TCA) 交会距离 交会风险概率(CRP) 交会风险指数(CRI) 操作
CDM_260913-214005-539605-647221
2026-09-13T
21:40:59+0000
2.511 km
极远距离
1.135913E-6 低风险 0.36
CDM_260914-063605-578905-647221
2026-09-14T
06:36:50+0000
2.962 km
极远距离
1.034452E-6 低风险 0.35
CDM_260907-134004-227105-647222
2026-09-07T
13:40:23+0000
2.795 km
极远距离
9.158194E-7 极低风险 0.34
与全量物体交会距离演化趋势
与全量物体交会风险概率演化趋势